Regional Weather Roundup
Issued by NWS

Home | Current Version | Previous Version | Graphics & Text | Print | Product List | Glossary On
Versions: 1 2 3 4 5 6 7 8 9 10 11 12 13 14 15 16 17 18 19 20 21 22 23 24 25 26 27 28 29 30 31 32 33 34 35 36 37 38 39 40 41 42 43 44 45 46 47 48 49 50
000
ASUS43 KDMX 170101
RWRIA

WEATHER ROUNDUP FOR IOWA
NATIONAL WEATHER SERVICE DES MOINES IA
700 PM CST SAT DEC 16 2017

NOTE: "FAIR" INDICATES FEW OR NO CLOUDS BELOW 12,000 FEET WITH NO
SIGNIFICANT WEATHER AND/OR OBSTRUCTIONS TO VISIBILITY.

* - THESE STATIONS ARE NOT NWS STATIONS...THUS NOT UNDER NWS
QUALITY CONTROL.  THEY ALSO DO NOT REPORT WEATHER SUCH
AS PRECIPITATION OR FOG.

IAZ001>003-012>014-020>022-031>034-043>046-170200-
   NORTHWEST IOWA

CITY           SKY/WX    TMP DP  RH WIND       PRES   REMARKS
CARROLL *      PTCLDY    37  27  65 N7        29.96R WCI  32
CHEROKEE *     CLEAR     36  29  78 NE6       29.98R WCI  31
LE MARS *      CLEAR     34  28  80 NE8       29.99R WCI  27
ORANGE CITY *  CLEAR     37  32  81 NE7       29.99R WCI  32
SHELDON *      CLOUDY    32  28  86 NE7       29.98R WCI  26
SIOUX CITY     PTCLDY    37  30  75 NE8       29.98R WCI  31
SPENCER        CLOUDY    28  24  85 N8        29.99R WCI  20
STORM LAKE *   CLEAR     37  28  70 NE9       29.97R WCI  31
$$

IAZ055>058-069>071-079>083-090>094-170200-
   SOUTHWEST IOWA

CITY           SKY/WX    TMP DP  RH WIND       PRES   REMARKS
ATLANTIC *     CLEAR     34  23  64 N7        29.94R WCI  28
AUDUBON *      CLEAR     30  25  80 CALM      29.95S
CLARINDA *     CLOUDY    30  21  69 CALM        N/A
COUNCIL BLFS * CLEAR     43  27  52 NE5       29.95R
CRESTON *      CLOUDY    39  25  56 S5        29.96R
HARLAN  *      CLEAR     37  25  60 N7        29.98R WCI  32
LAMONI         CLEAR     44  26  49 SW3       29.94R
RED OAK *      CLOUDY    30  21  69 CALM      29.97R
SHENANDOAH *   CLOUDY    36  23  60 NE6       29.95R WCI  31
$$

IAZ047>049-059>061-072>074-084-170200-
   CENTRAL IOWA

CITY           SKY/WX    TMP DP  RH WIND       PRES   REMARKS
AMES           CLEAR     35  27  72 N3        29.95R
ANKENY *       CLEAR     34  25  69 CALM      29.95R
BOONE *        CLEAR     39  28  65 N8        29.94R WCI  34
CHARITON *     CLEAR     41  25  52 SW7       29.94R
DES MOINES     CLEAR     43  26  51 CALM      29.94R
GRINNELL*      CLOUDY    37  24  60 CALM      29.94S
KNOXVILLE *    CLEAR     43  25  49 S5        29.93R
MARSHALLTOWN   CLEAR     34  24  67 NE10      29.94R WCI  26
NEWTON *       CLEAR     43  25  49 E5        29.94R
PELLA *        CLEAR     42  26  52 CALM      29.95R
$$

IAZ004>006-015-016-023>025-035-036-170200-
   NORTH CENTRAL IOWA

CITY           SKY/WX    TMP DP  RH WIND       PRES   REMARKS
ALGONA *       CLEAR     32  30  93 N8        29.98R WCI  25
CLARION *      CLEAR     28  23  80 NE7       29.97R WCI  21
ESTHERVILLE    CLOUDY    29  27  92 N8        30.00R WCI  21
FORT DODGE *   CLEAR     36  28  73 N7        29.98R WCI  30
MASON CITY     PTCLDY    29  22  75 N3        29.99R
FOREST CITY *    N/A     32  30  93 CALM      29.99R
WEBSTER CITY * CLEAR     34  27  75 N9        29.94R WCI  26
IOWA FALLS *     N/A     38  27  65 N6        29.96R WCI  33
$$

IAZ007>011-017>019-026>030-037>042-050>054-066-170200-
   NORTHEAST IOWA

CITY           SKY/WX    TMP DP  RH WIND       PRES   REMARKS
CEDAR RAPIDS   CLOUDY    37  25  61 CALM      29.95R
CHARLES CITY * PTCLDY    34  28  80 NE10      29.98R WCI  26
CLINTON *      CLOUDY    32  22  66 NE7       29.99R WCI  26
DECORAH *      CLEAR     30  25  80 NE5       29.98R WCI  25
DUBUQUE        CLEAR     34  26  72 E6        29.98R WCI  29
MONTICELLO *   MOCLDY    36  25  64 E7        29.97R WCI  30
OELWEIN *      CLEAR     32  27  80 NE7       29.97R WCI  26
WATERLOO       CLEAR     30  21  69 NE3       29.96R
$$

IAZ064-065-067-068-078-170200-
   EAST CENTRAL IOWA

CITY           SKY/WX    TMP DP  RH WIND       PRES   REMARKS
DAVENPORT      CLOUDY    33  22  63 NE6       29.99R WCI  28
IOWA CITY      CLOUDY    33  24  69 CALM      29.97R
MT. PLEASANT * CLOUDY    39  25  56 SE5       29.97R
MUSCATINE *    CLOUDY    32  21  64 CALM      29.97R
QUAD CITIES    CLOUDY    29  22  75 VRB3      29.97R
$$

IAZ062-063-075>077-085>089-095>099-170200-
   SOUTHEAST IOWA

CITY           SKY/WX    TMP DP  RH WIND       PRES   REMARKS
BURLINGTON     CLEAR     40  27  59 CALM      29.96R
FAIRFIELD *    CLOUDY    36  23  60 CALM      29.96R
FORT MADISON * CLEAR     48  28  46 CALM      29.97R
KEOKUK *       PTCLDY    46  27  46 W5        29.97R
OSKALOOSA *      N/A     42  26  53 S3        29.95R
OTTUMWA        CLEAR     36  24  62 S3        29.95R
WASHINGTON *   CLOUDY    36  25  64 CALM      29.97R
$$

ABBREVIATIONS USED IN REMARKS
   TC - TEMPERATURES IN CELSIUS
  WCI - WIND CHILL INDEX
   HX - HEAT INDEX
  VSB - VISIBILITY
$$





USA.gov is the U.S. government's official web portal to all federal, state and local government web resources and services.